Year,Month,Day,Hour,Minute,Value (Times are PST for temperature in C)
2014,06,19,00,00,14.10
2014,06,19,00,01,14.10
2014,06,19,00,02,14.10
2014,06,19,00,03,14.00
2014,06,19,00,04,14.00
2014,06,19,00,05,14.00
2014,06,19,00,06,14.00
2014,06,19,00,07,14.00
2014,06,19,00,08,13.90
2014,06,19,00,09,13.90
2014,06,19,00,10,13.90
2014,06,19,00,11,13.90
2014,06,19,00,12,13.90
2014,06,19,00,13,13.90
2014,06,19,00,14,13.90
2014,06,19,00,15,13.90
2014,06,19,00,16,13.90
2014,06,19,00,17,13.90
2014,06,19,00,18,13.80
2014,06,19,00,19,13.80
2014,06,19,00,20,13.80
2014,06,19,00,21,13.80
2014,06,19,00,22,13.80
2014,06,19,00,23,13.80
2014,06,19,00,24,13.80
2014,06,19,00,25,13.80
2014,06,19,00,26,13.80
2014,06,19,00,27,13.80
2014,06,19,00,28,13.80
2014,06,19,00,29,13.70
2014,06,19,00,30,13.70
2014,06,19,00,31,13.70
2014,06,19,00,32,13.70
2014,06,19,00,33,13.70
2014,06,19,00,34,13.70
2014,06,19,00,35,13.70
2014,06,19,00,36,13.70
2014,06,19,00,37,13.70
2014,06,19,00,38,13.70
2014,06,19,00,39,13.70
2014,06,19,00,40,13.70
2014,06,19,00,41,13.70
2014,06,19,00,42,13.70
2014,06,19,00,43,13.70
2014,06,19,00,44,13.60
2014,06,19,00,45,13.60
2014,06,19,00,46,13.60
2014,06,19,00,47,13.60
2014,06,19,00,48,13.60
2014,06,19,00,49,13.60
2014,06,19,00,50,13.60
2014,06,19,00,51,13.60
2014,06,19,00,52,13.50
2014,06,19,00,53,13.50
2014,06,19,00,54,13.50
2014,06,19,00,55,13.50
2014,06,19,00,56,13.50
2014,06,19,00,57,13.50
2014,06,19,00,58,13.50
2014,06,19,00,59,13.50
2014,06,19,01,00,13.50
2014,06,19,01,01,13.50
2014,06,19,01,02,13.40
2014,06,19,01,03,13.40
2014,06,19,01,04,13.40
2014,06,19,01,05,13.40
2014,06,19,01,06,13.40
2014,06,19,01,07,13.40
2014,06,19,01,08,13.40
2014,06,19,01,09,13.40
2014,06,19,01,10,13.40
2014,06,19,01,11,13.40
2014,06,19,01,12,13.40
2014,06,19,01,13,13.40
2014,06,19,01,14,13.40
2014,06,19,01,15,13.40
2014,06,19,01,16,13.40
2014,06,19,01,17,13.40
2014,06,19,01,18,13.40
2014,06,19,01,19,13.30
2014,06,19,01,20,13.30
2014,06,19,01,21,13.30
2014,06,19,01,22,13.30
2014,06,19,01,23,13.30
2014,06,19,01,24,13.30
2014,06,19,01,25,13.30
2014,06,19,01,26,13.30
2014,06,19,01,27,13.30
2014,06,19,01,28,13.30
2014,06,19,01,29,13.30
2014,06,19,01,30,13.30
2014,06,19,01,31,13.30
2014,06,19,01,32,13.30
2014,06,19,01,33,13.30
2014,06,19,01,34,13.30
2014,06,19,01,35,13.20
2014,06,19,01,36,13.20
2014,06,19,01,37,13.20
2014,06,19,01,38,13.20
2014,06,19,01,39,13.20
2014,06,19,01,40,13.20
2014,06,19,01,41,13.20
2014,06,19,01,42,13.20
2014,06,19,01,43,13.20
2014,06,19,01,44,13.20
2014,06,19,01,45,13.20
2014,06,19,01,46,13.20
2014,06,19,01,47,13.20
2014,06,19,01,48,13.20
2014,06,19,01,49,13.20
2014,06,19,01,50,13.20
2014,06,19,01,51,13.20
2014,06,19,01,52,13.20
2014,06,19,01,53,13.20
2014,06,19,01,54,13.20
2014,06,19,01,55,13.20
2014,06,19,01,56,13.20
2014,06,19,01,57,13.20
2014,06,19,01,58,13.20
2014,06,19,01,59,13.20
2014,06,19,02,00,13.20
2014,06,19,02,01,13.20
2014,06,19,02,02,13.20
2014,06,19,02,03,13.20
2014,06,19,02,04,13.20
2014,06,19,02,05,13.20
2014,06,19,02,06,13.20
2014,06,19,02,07,13.20
2014,06,19,02,08,13.20
2014,06,19,02,09,13.20
2014,06,19,02,10,13.20
2014,06,19,02,11,13.20
2014,06,19,02,12,13.20
2014,06,19,02,13,13.20
2014,06,19,02,14,13.20
2014,06,19,02,15,13.10
2014,06,19,02,16,13.10
2014,06,19,02,17,13.10
2014,06,19,02,18,13.10
2014,06,19,02,19,13.10
2014,06,19,02,20,13.10
2014,06,19,02,21,13.10
2014,06,19,02,22,13.10
2014,06,19,02,23,13.10
2014,06,19,02,24,13.10
2014,06,19,02,25,13.10
2014,06,19,02,26,13.10
2014,06,19,02,27,13.20
2014,06,19,02,28,13.10
2014,06,19,02,29,13.10
2014,06,19,02,30,13.10
2014,06,19,02,31,13.10
2014,06,19,02,32,13.10
2014,06,19,02,33,13.10
2014,06,19,02,34,13.10
2014,06,19,02,35,13.10
2014,06,19,02,36,13.10
2014,06,19,02,37,13.10
2014,06,19,02,38,13.10
2014,06,19,02,39,13.10
2014,06,19,02,40,13.10
2014,06,19,02,41,13.10
2014,06,19,02,42,13.10
2014,06,19,02,43,13.10
2014,06,19,02,44,13.10
2014,06,19,02,45,13.10
2014,06,19,02,46,13.10
2014,06,19,02,47,13.10
2014,06,19,02,48,13.10
2014,06,19,02,49,13.10
2014,06,19,02,50,13.10
2014,06,19,02,51,13.00
2014,06,19,02,52,13.00
2014,06,19,02,53,13.00
2014,06,19,02,54,13.00
2014,06,19,02,55,13.00
2014,06,19,02,56,13.00
2014,06,19,02,57,13.00
2014,06,19,02,58,13.00
2014,06,19,02,59,13.00
2014,06,19,03,00,13.00
2014,06,19,03,01,13.00
2014,06,19,03,02,13.00
2014,06,19,03,03,13.00
2014,06,19,03,04,13.00
2014,06,19,03,05,13.00
2014,06,19,03,06,13.00
2014,06,19,03,07,13.00
2014,06,19,03,08,13.00
2014,06,19,03,09,13.00
2014,06,19,03,10,13.00
2014,06,19,03,11,13.00
2014,06,19,03,12,13.00
2014,06,19,03,13,13.00
2014,06,19,03,14,13.00
2014,06,19,03,15,13.00
2014,06,19,03,16,13.00
2014,06,19,03,17,13.00
2014,06,19,03,18,13.00
2014,06,19,03,19,13.00
2014,06,19,03,20,13.00
2014,06,19,03,21,13.00
2014,06,19,03,22,13.00
2014,06,19,03,23,13.00
2014,06,19,03,24,13.00
2014,06,19,03,25,13.00
2014,06,19,03,26,13.00
2014,06,19,03,27,13.00
2014,06,19,03,28,13.00
2014,06,19,03,29,13.00
2014,06,19,03,30,13.00
2014,06,19,03,31,13.00
2014,06,19,03,32,12.90
2014,06,19,03,33,13.00
2014,06,19,03,34,13.00
2014,06,19,03,35,12.90
2014,06,19,03,36,12.90
2014,06,19,03,37,12.90
2014,06,19,03,38,12.90
2014,06,19,03,39,12.90
2014,06,19,03,40,12.90
2014,06,19,03,41,12.90
2014,06,19,03,42,12.90
2014,06,19,03,43,12.90
2014,06,19,03,44,12.90
2014,06,19,03,45,12.90
2014,06,19,03,46,12.90
2014,06,19,03,47,12.90
2014,06,19,03,48,12.90
2014,06,19,03,49,12.90
2014,06,19,03,50,12.90
2014,06,19,03,51,12.90
2014,06,19,03,52,12.90
2014,06,19,03,53,12.90
2014,06,19,03,54,12.90
2014,06,19,03,55,12.90
2014,06,19,03,56,12.90
2014,06,19,03,57,12.90
2014,06,19,03,58,12.90
2014,06,19,03,59,12.90
2014,06,19,04,00,12.90
2014,06,19,04,01,12.90
2014,06,19,04,02,12.90
2014,06,19,04,03,13.00
2014,06,19,04,04,13.00
2014,06,19,04,05,13.00
2014,06,19,04,06,13.00
2014,06,19,04,07,13.00
2014,06,19,04,08,13.00
2014,06,19,04,09,13.00
2014,06,19,04,10,13.00
2014,06,19,04,11,13.00
2014,06,19,04,12,13.00
2014,06,19,04,13,13.00
2014,06,19,04,14,13.00
2014,06,19,04,15,13.00
2014,06,19,04,16,13.00
2014,06,19,04,17,13.00
2014,06,19,04,18,13.00
2014,06,19,04,19,13.00
2014,06,19,04,20,13.00
2014,06,19,04,21,13.00
2014,06,19,04,22,13.00
2014,06,19,04,23,12.90
2014,06,19,04,24,12.90
2014,06,19,04,25,12.90
2014,06,19,04,26,12.90
2014,06,19,04,27,12.90
2014,06,19,04,28,12.90
2014,06,19,04,29,12.90
2014,06,19,04,30,12.90
2014,06,19,04,31,12.90
2014,06,19,04,32,12.90
2014,06,19,04,33,12.90
2014,06,19,04,34,12.90
2014,06,19,04,35,12.90
2014,06,19,04,36,12.90
2014,06,19,04,37,12.90
2014,06,19,04,38,12.90
2014,06,19,04,39,12.90
2014,06,19,04,40,12.90
2014,06,19,04,41,12.90
2014,06,19,04,42,12.90
2014,06,19,04,43,12.90
2014,06,19,04,44,12.90
2014,06,19,04,45,12.90
2014,06,19,04,46,12.80
2014,06,19,04,47,12.80
2014,06,19,04,48,12.80
2014,06,19,04,49,12.80
2014,06,19,04,50,12.80
2014,06,19,04,51,12.80
2014,06,19,04,52,12.80
2014,06,19,04,53,12.80
2014,06,19,04,54,12.80
2014,06,19,04,55,12.80
2014,06,19,04,56,12.80
2014,06,19,04,57,12.80
2014,06,19,04,58,12.80
2014,06,19,04,59,12.80
2014,06,19,05,00,12.80
2014,06,19,05,01,12.80
2014,06,19,05,02,12.80
2014,06,19,05,03,12.80
2014,06,19,05,04,12.80
2014,06,19,05,05,12.80
2014,06,19,05,06,12.80
2014,06,19,05,07,12.80
2014,06,19,05,08,12.80
2014,06,19,05,09,12.80
2014,06,19,05,10,12.80
2014,06,19,05,11,12.80
2014,06,19,05,12,12.80
2014,06,19,05,13,12.80
2014,06,19,05,14,12.80
2014,06,19,05,15,12.80
2014,06,19,05,16,12.80
2014,06,19,05,17,12.80
2014,06,19,05,18,12.80
2014,06,19,05,19,12.80
2014,06,19,05,20,12.80
2014,06,19,05,21,12.80
2014,06,19,05,22,12.80
2014,06,19,05,23,12.80
2014,06,19,05,24,12.80
2014,06,19,05,25,12.80
2014,06,19,05,26,12.80
2014,06,19,05,27,12.80
2014,06,19,05,28,12.80
2014,06,19,05,29,12.80
2014,06,19,05,30,12.80
2014,06,19,05,31,12.80
2014,06,19,05,32,12.80
2014,06,19,05,33,12.80
2014,06,19,05,34,12.80
2014,06,19,05,35,12.80
2014,06,19,05,36,12.80
2014,06,19,05,37,12.80
2014,06,19,05,38,12.80
2014,06,19,05,39,12.80
2014,06,19,05,40,12.80
2014,06,19,05,41,12.80
2014,06,19,05,42,12.80
2014,06,19,05,43,12.80
2014,06,19,05,44,12.80
2014,06,19,05,45,12.80
2014,06,19,05,46,12.80
2014,06,19,05,47,12.80
2014,06,19,05,48,12.80
2014,06,19,05,49,12.80
2014,06,19,05,50,12.80
2014,06,19,05,51,12.80
2014,06,19,05,52,12.80
2014,06,19,05,53,12.80
2014,06,19,05,54,12.80
2014,06,19,05,55,12.80
2014,06,19,05,56,12.80
2014,06,19,05,57,12.80
2014,06,19,05,58,12.80
2014,06,19,05,59,12.80
2014,06,19,06,00,12.80
2014,06,19,06,01,12.80
2014,06,19,06,02,12.80
2014,06,19,06,03,12.80
2014,06,19,06,04,12.80
2014,06,19,06,05,12.80
2014,06,19,06,06,12.80
2014,06,19,06,07,12.80
2014,06,19,06,08,12.80
2014,06,19,06,09,12.80
2014,06,19,06,10,12.80
2014,06,19,06,11,12.80
2014,06,19,06,12,12.80
2014,06,19,06,13,12.80
2014,06,19,06,14,12.80
2014,06,19,06,15,12.80
2014,06,19,06,16,12.80
2014,06,19,06,17,12.80
2014,06,19,06,18,12.80
2014,06,19,06,19,12.80
2014,06,19,06,20,12.80
2014,06,19,06,21,12.80
2014,06,19,06,22,12.80
2014,06,19,06,23,12.80
2014,06,19,06,24,12.80
2014,06,19,06,25,12.80
2014,06,19,06,26,12.80
2014,06,19,06,27,12.80
2014,06,19,06,28,12.80
2014,06,19,06,29,12.80
2014,06,19,06,30,12.80
2014,06,19,06,31,12.80
2014,06,19,06,32,12.80
2014,06,19,06,33,12.80
2014,06,19,06,34,12.80
2014,06,19,06,35,12.80
2014,06,19,06,36,12.80
2014,06,19,06,37,12.90
2014,06,19,06,38,12.90
2014,06,19,06,39,12.90
2014,06,19,06,40,12.90
2014,06,19,06,41,12.90
2014,06,19,06,42,12.90
2014,06,19,06,43,12.90
2014,06,19,06,44,12.90
2014,06,19,06,45,12.90
2014,06,19,06,46,12.90
2014,06,19,06,47,13.00
2014,06,19,06,48,13.00
2014,06,19,06,49,13.00
2014,06,19,06,50,13.10
2014,06,19,06,51,13.10
2014,06,19,06,52,13.10
2014,06,19,06,53,13.10
2014,06,19,06,54,13.20
2014,06,19,06,55,13.20
2014,06,19,06,56,13.20
2014,06,19,06,57,13.20
2014,06,19,06,58,13.20
2014,06,19,06,59,13.20
2014,06,19,07,00,13.30
2014,06,19,07,01,13.30
2014,06,19,07,02,13.30
2014,06,19,07,03,13.30
2014,06,19,07,04,13.30
2014,06,19,07,05,13.30
2014,06,19,07,06,13.30
2014,06,19,07,07,13.40
2014,06,19,07,08,13.40
2014,06,19,07,09,13.40
2014,06,19,07,10,13.50
2014,06,19,07,11,13.50
2014,06,19,07,12,13.60
2014,06,19,07,13,13.60
2014,06,19,07,14,13.60
2014,06,19,07,15,13.70
2014,06,19,07,16,13.70
2014,06,19,07,17,13.70
2014,06,19,07,18,13.80
2014,06,19,07,19,13.80
2014,06,19,07,20,13.90
2014,06,19,07,21,14.00
2014,06,19,07,22,14.00
2014,06,19,07,23,14.10
2014,06,19,07,24,14.10
2014,06,19,07,25,14.20
2014,06,19,07,26,14.20
2014,06,19,07,27,14.30
2014,06,19,07,28,14.30
2014,06,19,07,29,14.30
2014,06,19,07,30,14.40
2014,06,19,07,31,14.40
2014,06,19,07,32,14.50
2014,06,19,07,33,14.50
2014,06,19,07,34,14.50
2014,06,19,07,35,14.60
2014,06,19,07,36,14.60
2014,06,19,07,37,14.60
2014,06,19,07,38,14.60
2014,06,19,07,39,14.70
2014,06,19,07,40,14.70
2014,06,19,07,41,14.70
2014,06,19,07,42,14.70
2014,06,19,07,43,14.70
2014,06,19,07,44,14.70
2014,06,19,07,45,14.70
2014,06,19,07,46,14.80
2014,06,19,07,47,14.80
2014,06,19,07,48,14.80
2014,06,19,07,49,14.80
2014,06,19,07,50,14.80
2014,06,19,07,51,14.80
2014,06,19,07,52,14.80
2014,06,19,07,53,14.80
2014,06,19,07,54,14.80
2014,06,19,07,55,14.80
2014,06,19,07,56,14.80
2014,06,19,07,57,14.90
2014,06,19,07,58,14.90
2014,06,19,07,59,14.90
2014,06,19,08,00,14.90
2014,06,19,08,01,14.90
2014,06,19,08,02,14.90
2014,06,19,08,03,14.90
2014,06,19,08,04,14.90
2014,06,19,08,05,14.90
2014,06,19,08,06,14.90
2014,06,19,08,07,14.90
2014,06,19,08,08,14.90
2014,06,19,08,09,15.00
2014,06,19,08,10,15.00
2014,06,19,08,11,15.00
2014,06,19,08,12,15.00
2014,06,19,08,13,15.00
2014,06,19,08,14,15.00
2014,06,19,08,15,15.00
2014,06,19,08,16,15.00
2014,06,19,08,17,15.00
2014,06,19,08,18,15.00
2014,06,19,08,19,15.00
2014,06,19,08,20,15.10
2014,06,19,08,21,15.10
2014,06,19,08,22,15.00
2014,06,19,08,23,15.00
2014,06,19,08,24,15.00
2014,06,19,08,25,15.00
2014,06,19,08,26,15.00
2014,06,19,08,27,15.00
2014,06,19,08,28,15.00
2014,06,19,08,29,15.00
2014,06,19,08,30,15.00
2014,06,19,08,31,15.00
2014,06,19,08,32,15.00
2014,06,19,08,33,15.00
2014,06,19,08,34,15.00
2014,06,19,08,35,15.10
2014,06,19,08,36,15.10
2014,06,19,08,37,15.10
2014,06,19,08,38,15.10
2014,06,19,08,39,15.10
2014,06,19,08,40,15.10
2014,06,19,08,41,15.10
2014,06,19,08,42,15.10
2014,06,19,08,43,15.10
2014,06,19,08,44,15.10
2014,06,19,08,45,15.10
2014,06,19,08,46,15.10
2014,06,19,08,47,15.10
2014,06,19,08,48,15.10
2014,06,19,08,49,15.10
2014,06,19,08,50,15.10
2014,06,19,08,51,15.10
2014,06,19,08,52,15.10
2014,06,19,08,53,15.10
2014,06,19,08,54,15.10
2014,06,19,08,55,15.10
2014,06,19,08,56,15.10
2014,06,19,08,57,15.10
2014,06,19,08,58,15.10
2014,06,19,08,59,15.10
2014,06,19,09,00,15.10
2014,06,19,09,01,15.10
2014,06,19,09,02,15.10
2014,06,19,09,03,15.10
2014,06,19,09,04,15.10
2014,06,19,09,05,15.10
2014,06,19,09,06,15.10
2014,06,19,09,07,15.10
2014,06,19,09,08,15.10
2014,06,19,09,09,15.20
2014,06,19,09,10,15.20
2014,06,19,09,11,15.20
2014,06,19,09,12,15.20
2014,06,19,09,13,15.20
2014,06,19,09,14,15.20
2014,06,19,09,15,15.20
2014,06,19,09,16,15.20
2014,06,19,09,17,15.20
2014,06,19,09,18,15.20
2014,06,19,09,19,15.20
2014,06,19,09,20,15.20
2014,06,19,09,21,15.20
2014,06,19,09,22,15.20
2014,06,19,09,23,15.30
2014,06,19,09,24,15.30
2014,06,19,09,25,15.30
2014,06,19,09,26,15.30
2014,06,19,09,27,15.30
2014,06,19,09,28,15.30
2014,06,19,09,29,15.30
2014,06,19,09,30,15.30
2014,06,19,09,31,15.30
2014,06,19,09,32,15.30
2014,06,19,09,33,15.30
2014,06,19,09,34,15.30
2014,06,19,09,35,15.30
2014,06,19,09,36,15.30
2014,06,19,09,37,15.30
2014,06,19,09,38,15.30
2014,06,19,09,39,15.30
2014,06,19,09,40,15.30
2014,06,19,09,41,15.30
2014,06,19,09,42,15.30
2014,06,19,09,43,15.30
2014,06,19,09,44,15.30
2014,06,19,09,45,15.30
2014,06,19,09,46,15.30
2014,06,19,09,47,15.30
2014,06,19,09,48,15.30
2014,06,19,09,49,15.30
2014,06,19,09,50,15.30
2014,06,19,09,51,15.30
2014,06,19,09,52,15.30
2014,06,19,09,53,15.40
2014,06,19,09,54,15.40
2014,06,19,09,55,15.40
2014,06,19,09,56,15.40
2014,06,19,09,57,15.50
2014,06,19,09,58,15.50
2014,06,19,09,59,15.60
2014,06,19,10,00,15.60
2014,06,19,10,01,15.60
2014,06,19,10,02,15.60
2014,06,19,10,03,15.70
2014,06,19,10,04,15.70
2014,06,19,10,05,15.70
2014,06,19,10,06,15.70
2014,06,19,10,07,15.70
2014,06,19,10,08,15.80
2014,06,19,10,09,15.80
2014,06,19,10,10,15.80
2014,06,19,10,11,15.80
2014,06,19,10,12,15.70
2014,06,19,10,13,15.70
2014,06,19,10,14,15.70
2014,06,19,10,15,15.70
2014,06,19,10,16,15.70
2014,06,19,10,17,15.70
2014,06,19,10,18,15.70
2014,06,19,10,19,15.70
2014,06,19,10,20,15.70
2014,06,19,10,21,15.70
2014,06,19,10,22,15.70
2014,06,19,10,23,15.70
2014,06,19,10,24,15.70
2014,06,19,10,25,15.70
2014,06,19,10,26,15.70
2014,06,19,10,27,15.70
2014,06,19,10,28,15.70
2014,06,19,10,29,15.70
2014,06,19,10,30,15.70
2014,06,19,10,31,15.70
2014,06,19,10,32,15.70
2014,06,19,10,33,15.70
2014,06,19,10,34,15.70
2014,06,19,10,35,15.80
2014,06,19,10,36,15.80
2014,06,19,10,37,15.80
2014,06,19,10,38,15.70
2014,06,19,10,39,15.70
2014,06,19,10,40,15.70
2014,06,19,10,41,15.70
2014,06,19,10,42,15.70
2014,06,19,10,43,15.70
2014,06,19,10,44,15.70
2014,06,19,10,45,15.70
2014,06,19,10,46,15.60
2014,06,19,10,47,15.60
2014,06,19,10,48,15.70
2014,06,19,10,49,15.70
2014,06,19,10,50,15.70
2014,06,19,10,51,15.70
2014,06,19,10,52,15.70
2014,06,19,10,53,15.70
2014,06,19,10,54,15.70
2014,06,19,10,55,15.80
2014,06,19,10,56,15.80
2014,06,19,10,57,15.80
2014,06,19,10,58,15.80
2014,06,19,10,59,15.90
2014,06,19,11,00,15.90
2014,06,19,11,01,16.00
2014,06,19,11,02,16.00
2014,06,19,11,03,16.00
2014,06,19,11,04,16.10
2014,06,19,11,05,16.10
2014,06,19,11,06,16.10
2014,06,19,11,07,16.20
2014,06,19,11,08,16.20
2014,06,19,11,09,16.20
2014,06,19,11,10,16.20
2014,06,19,11,11,16.20
2014,06,19,11,12,16.30
2014,06,19,11,13,16.30
2014,06,19,11,14,16.20
2014,06,19,11,15,16.20
2014,06,19,11,16,16.30
2014,06,19,11,17,16.30
2014,06,19,11,18,16.30
2014,06,19,11,19,16.30
2014,06,19,11,20,16.30
2014,06,19,11,21,16.30
2014,06,19,11,22,16.30
2014,06,19,11,23,16.30
2014,06,19,11,24,16.30
2014,06,19,11,25,16.40
2014,06,19,11,26,16.40
2014,06,19,11,27,16.40
2014,06,19,11,28,16.40
2014,06,19,11,29,16.40
2014,06,19,11,30,16.40
2014,06,19,11,31,16.40
2014,06,19,11,32,16.50
2014,06,19,11,33,16.50
2014,06,19,11,34,16.50
2014,06,19,11,35,16.50
2014,06,19,11,36,16.50
2014,06,19,11,37,16.40
2014,06,19,11,38,16.40
2014,06,19,11,39,16.30
2014,06,19,11,40,16.30
2014,06,19,11,41,16.30
2014,06,19,11,42,16.30
2014,06,19,11,43,16.30
2014,06,19,11,44,16.30
2014,06,19,11,45,16.30
2014,06,19,11,46,16.30
2014,06,19,11,47,16.30
2014,06,19,11,48,16.20
2014,06,19,11,49,16.20
2014,06,19,11,50,16.20
2014,06,19,11,51,16.10
2014,06,19,11,52,16.10
2014,06,19,11,53,16.10
2014,06,19,11,54,16.10
2014,06,19,11,55,16.10
2014,06,19,11,56,16.10
2014,06,19,11,57,16.10
2014,06,19,11,58,16.10
2014,06,19,11,59,16.10
2014,06,19,12,00,16.10
2014,06,19,12,01,16.10
2014,06,19,12,02,16.10
2014,06,19,12,03,16.10
2014,06,19,12,04,16.10
2014,06,19,12,05,16.10
2014,06,19,12,06,16.10
2014,06,19,12,07,16.20
2014,06,19,12,08,16.20
2014,06,19,12,09,16.20
2014,06,19,12,10,16.20
2014,06,19,12,11,16.20
2014,06,19,12,12,16.20
2014,06,19,12,13,16.20
2014,06,19,12,14,16.20
2014,06,19,12,15,16.20
2014,06,19,12,16,16.20
2014,06,19,12,17,16.20
2014,06,19,12,18,16.20
2014,06,19,12,19,16.20
2014,06,19,12,20,16.20
2014,06,19,12,21,16.30
2014,06,19,12,22,16.30
2014,06,19,12,23,16.30
2014,06,19,12,24,16.30
2014,06,19,12,25,16.30
2014,06,19,12,26,16.30
2014,06,19,12,27,16.40
2014,06,19,12,28,16.40
2014,06,19,12,29,16.40
2014,06,19,12,30,16.40
2014,06,19,12,31,16.40
2014,06,19,12,32,16.40
2014,06,19,12,33,16.40
2014,06,19,12,34,16.50
2014,06,19,12,35,16.50
2014,06,19,12,36,16.50
2014,06,19,12,37,16.50
2014,06,19,12,38,16.50
2014,06,19,12,39,16.50
2014,06,19,12,40,16.50
2014,06,19,12,41,16.50
2014,06,19,12,42,16.60
2014,06,19,12,43,16.60
2014,06,19,12,44,16.60
2014,06,19,12,45,16.60
2014,06,19,12,46,16.60
2014,06,19,12,47,16.70
2014,06,19,12,48,16.70
2014,06,19,12,49,16.70
2014,06,19,12,50,16.70
2014,06,19,12,51,16.70
2014,06,19,12,52,16.80
2014,06,19,12,53,16.80
2014,06,19,12,54,16.80
2014,06,19,12,55,16.90
2014,06,19,12,56,16.90
2014,06,19,12,57,16.90
2014,06,19,12,58,16.90
2014,06,19,12,59,16.90
2014,06,19,13,00,16.90
2014,06,19,13,01,16.80
2014,06,19,13,02,16.80
2014,06,19,13,03,16.80
2014,06,19,13,04,16.80
2014,06,19,13,05,16.80
2014,06,19,13,06,16.80
2014,06,19,13,07,16.80
2014,06,19,13,08,16.80
2014,06,19,13,09,16.80
2014,06,19,13,10,16.70
2014,06,19,13,11,16.70
2014,06,19,13,12,16.70
2014,06,19,13,13,16.70
2014,06,19,13,14,16.70
2014,06,19,13,15,16.70
2014,06,19,13,16,16.70
2014,06,19,13,17,16.70
2014,06,19,13,18,16.60
2014,06,19,13,19,16.60
2014,06,19,13,20,16.60
2014,06,19,13,21,16.60
2014,06,19,13,22,16.60
2014,06,19,13,23,16.60
2014,06,19,13,24,16.50
2014,06,19,13,25,16.50
2014,06,19,13,26,16.50
2014,06,19,13,27,16.40
2014,06,19,13,28,16.40
2014,06,19,13,29,16.30
2014,06,19,13,30,16.30
2014,06,19,13,31,16.30
2014,06,19,13,32,16.30
2014,06,19,13,33,16.30
2014,06,19,13,34,16.30
2014,06,19,13,35,16.30
2014,06,19,13,36,16.30
2014,06,19,13,37,16.20
2014,06,19,13,38,16.30
2014,06,19,13,39,16.20
2014,06,19,13,40,16.20
2014,06,19,13,41,16.20
2014,06,19,13,42,16.30
2014,06,19,13,43,16.30
2014,06,19,13,44,16.30
2014,06,19,13,45,16.30
2014,06,19,13,46,16.30
2014,06,19,13,47,16.40
2014,06,19,13,48,16.40
2014,06,19,13,49,16.40
2014,06,19,13,50,16.50
2014,06,19,13,51,16.50
2014,06,19,13,52,16.60
2014,06,19,13,53,16.60
2014,06,19,13,54,16.70
2014,06,19,13,55,16.70
2014,06,19,13,56,16.80
2014,06,19,13,57,16.80
2014,06,19,13,58,16.90
2014,06,19,13,59,17.00
2014,06,19,14,00,17.00
2014,06,19,14,01,17.00
2014,06,19,14,02,17.10
2014,06,19,14,03,17.10
2014,06,19,14,04,17.10
2014,06,19,14,05,17.10
2014,06,19,14,06,17.10
2014,06,19,14,07,17.20
2014,06,19,14,08,17.10
2014,06,19,14,09,17.10
2014,06,19,14,10,17.10
2014,06,19,14,11,17.10
2014,06,19,14,12,17.10
2014,06,19,14,13,17.20
2014,06,19,14,14,17.20
2014,06,19,14,15,17.20
2014,06,19,14,16,17.20
2014,06,19,14,17,17.20
2014,06,19,14,18,17.20
2014,06,19,14,19,17.30
2014,06,19,14,20,17.30
2014,06,19,14,21,17.30
2014,06,19,14,22,17.40
2014,06,19,14,23,17.50
2014,06,19,14,24,17.50
2014,06,19,14,25,17.60
2014,06,19,14,26,17.70
2014,06,19,14,27,17.70
2014,06,19,14,28,17.80
2014,06,19,14,29,17.80
2014,06,19,14,30,17.80
2014,06,19,14,31,17.80
2014,06,19,14,32,17.80
2014,06,19,14,33,17.90
2014,06,19,14,34,17.90
2014,06,19,14,35,17.90
2014,06,19,14,36,17.90
2014,06,19,14,37,17.90
2014,06,19,14,38,17.90
2014,06,19,14,39,18.00
2014,06,19,14,40,17.90
2014,06,19,14,41,17.90
2014,06,19,14,42,17.80
2014,06,19,14,43,17.80
2014,06,19,14,44,17.70
2014,06,19,14,45,17.70
2014,06,19,14,46,17.70
2014,06,19,14,47,17.70
2014,06,19,14,48,17.70
2014,06,19,14,49,17.60
2014,06,19,14,50,17.60
2014,06,19,14,51,17.50
2014,06,19,14,52,17.40
2014,06,19,14,53,17.30
2014,06,19,14,54,17.30
2014,06,19,14,55,17.30
2014,06,19,14,56,17.30
2014,06,19,14,57,17.20
2014,06,19,14,58,17.20
2014,06,19,14,59,17.20
2014,06,19,15,00,17.20
2014,06,19,15,01,17.20
2014,06,19,15,02,17.30
2014,06,19,15,03,17.30
2014,06,19,15,04,17.40
2014,06,19,15,05,17.50
2014,06,19,15,06,17.50
2014,06,19,15,07,17.50
2014,06,19,15,08,17.50
2014,06,19,15,09,17.40
2014,06,19,15,10,17.40
2014,06,19,15,11,17.30
2014,06,19,15,12,17.30
2014,06,19,15,13,17.30
2014,06,19,15,14,17.20
2014,06,19,15,15,17.20
2014,06,19,15,16,17.10
2014,06,19,15,17,17.10
2014,06,19,15,18,17.10
2014,06,19,15,19,17.10
2014,06,19,15,20,17.10
2014,06,19,15,21,17.20
2014,06,19,15,22,17.30
2014,06,19,15,23,17.40
2014,06,19,15,24,17.50
2014,06,19,15,25,17.60
2014,06,19,15,26,17.60
2014,06,19,15,27,17.60
2014,06,19,15,28,17.50
2014,06,19,15,29,17.40
2014,06,19,15,30,17.30
2014,06,19,15,31,17.30
2014,06,19,15,32,17.20
2014,06,19,15,33,17.20
2014,06,19,15,34,17.20
2014,06,19,15,35,17.10
2014,06,19,15,36,17.10
2014,06,19,15,37,17.00
2014,06,19,15,38,17.00
2014,06,19,15,39,17.00
2014,06,19,15,40,16.90
2014,06,19,15,41,16.90
2014,06,19,15,42,16.80
2014,06,19,15,43,16.80
2014,06,19,15,44,16.80
2014,06,19,15,45,16.80
2014,06,19,15,46,16.70
2014,06,19,15,47,16.70
2014,06,19,15,48,16.70
2014,06,19,15,49,16.70
2014,06,19,15,50,16.70
2014,06,19,15,51,16.80
2014,06,19,15,52,16.80
2014,06,19,15,53,16.80
2014,06,19,15,54,16.90
2014,06,19,15,55,16.90
2014,06,19,15,56,16.90
2014,06,19,15,57,16.90
2014,06,19,15,58,16.90
2014,06,19,15,59,16.90
2014,06,19,16,00,17.00
2014,06,19,16,01,17.00
2014,06,19,16,02,17.00
2014,06,19,16,03,17.10
2014,06,19,16,04,17.10
2014,06,19,16,05,17.10
2014,06,19,16,06,17.10
2014,06,19,16,07,17.10
2014,06,19,16,08,17.10
2014,06,19,16,09,17.10
2014,06,19,16,10,17.10
2014,06,19,16,11,17.10
2014,06,19,16,12,17.10
2014,06,19,16,13,17.20
2014,06,19,16,14,17.20
2014,06,19,16,15,17.20
2014,06,19,16,16,17.20
2014,06,19,16,17,17.20
2014,06,19,16,18,17.20
2014,06,19,16,19,17.20
2014,06,19,16,20,17.20
2014,06,19,16,21,17.20
2014,06,19,16,22,17.20
2014,06,19,16,23,17.10
2014,06,19,16,24,17.10
2014,06,19,16,25,17.10
2014,06,19,16,26,17.10
2014,06,19,16,27,17.10
2014,06,19,16,28,17.00
2014,06,19,16,29,17.00
2014,06,19,16,30,17.00
2014,06,19,16,31,16.90
2014,06,19,16,32,16.90
2014,06,19,16,33,16.80
2014,06,19,16,34,16.80
2014,06,19,16,35,16.80
2014,06,19,16,36,16.70
2014,06,19,16,37,16.70
2014,06,19,16,38,16.70
2014,06,19,16,39,16.60
2014,06,19,16,40,16.60
2014,06,19,16,41,16.60
2014,06,19,16,42,16.60
2014,06,19,16,43,16.60
2014,06,19,16,44,16.60
2014,06,19,16,45,16.60
2014,06,19,16,46,16.60
2014,06,19,16,47,16.60
2014,06,19,16,48,16.60
2014,06,19,16,49,16.60
2014,06,19,16,50,16.60
2014,06,19,16,51,16.60
2014,06,19,16,52,16.60
2014,06,19,16,53,16.60
2014,06,19,16,54,16.60
2014,06,19,16,55,16.60
2014,06,19,16,56,16.50
2014,06,19,16,57,16.50
2014,06,19,16,58,16.60
2014,06,19,16,59,16.60
2014,06,19,17,00,16.50
2014,06,19,17,01,16.50
2014,06,19,17,02,16.50
2014,06,19,17,03,16.50
2014,06,19,17,04,16.50
2014,06,19,17,05,16.50
2014,06,19,17,06,16.50
2014,06,19,17,07,16.50
2014,06,19,17,08,16.50
2014,06,19,17,09,16.50
2014,06,19,17,10,16.50
2014,06,19,17,11,16.50
2014,06,19,17,12,16.50
2014,06,19,17,13,16.50
2014,06,19,17,14,16.60
2014,06,19,17,15,16.60
2014,06,19,17,16,16.60
2014,06,19,17,17,16.60
2014,06,19,17,18,16.60
2014,06,19,17,19,16.60